TimeCDT,TemperatureF,Dew PointF,Humidity,Sea Level PressureIn,VisibilityMPH,Wind Direction,Wind SpeedMPH,Gust SpeedMPH,PrecipitationIn,Events,Conditions,WindDirDegrees,DateUTC
12:53 AM,55.9,54.0,93,30.14,6.0,NE,3.5,-,N/A,,Clear,40,2014-05-19 05:53:00
1:53 AM,55.9,55.0,97,30.14,5.0,ENE,3.5,-,N/A,,Clear,70,2014-05-19 06:53:00
2:13 AM,57.2,55.4,94,30.14,4.0,Calm,Calm,-,N/A,,Scattered Clouds,0,2014-05-19 07:13:00
2:22 AM,55.4,53.6,94,30.14,3.0,Calm,Calm,-,N/A,,Mostly Cloudy,0,2014-05-19 07:22:00
2:40 AM,55.4,53.6,94,30.14,2.0,NE,3.5,-,N/A,,Overcast,50,2014-05-19 07:40:00
2:47 AM,55.4,53.6,94,30.14,1.0,NE,3.5,-,N/A,,Mist,50,2014-05-19 07:47:00
2:48 AM,55.9,54.0,93,30.14,1.0,NE,4.6,-,N/A,,Mist,50,2014-05-19 07:48:00
2:52 AM,55.4,53.6,94,30.14,0.5,NE,4.6,-,N/A,Fog,Fog,50,2014-05-19 07:52:00
3:03 AM,55.4,55.4,100,30.14,1.0,NE,4.6,-,N/A,,Mist,50,2014-05-19 08:03:00
3:09 AM,55.4,53.6,94,30.14,3.0,NE,4.6,-,N/A,,Mostly Cloudy,50,2014-05-19 08:09:00
3:21 AM,55.4,53.6,94,30.13,4.0,ENE,5.8,-,N/A,,Scattered Clouds,60,2014-05-19 08:21:00
3:53 AM,55.9,54.0,93,30.13,5.0,East,3.5,-,N/A,,Partly Cloudy,80,2014-05-19 08:53:00
4:21 AM,55.4,55.4,100,30.13,2.5,ENE,3.5,-,N/A,,Clear,70,2014-05-19 09:21:00
4:45 AM,55.4,55.4,100,30.14,3.0,ENE,5.8,-,N/A,,Partly Cloudy,60,2014-05-19 09:45:00
4:53 AM,55.9,55.0,97,30.14,3.0,ENE,4.6,-,N/A,,Mostly Cloudy,60,2014-05-19 09:53:00
5:53 AM,57.9,55.9,93,30.14,6.0,East,4.6,-,N/A,,Overcast,90,2014-05-19 10:53:00
6:53 AM,59.0,57.0,93,30.15,10.0,ESE,5.8,-,N/A,,Overcast,110,2014-05-19 11:53:00
8:53 AM,64.0,59.0,84,30.16,10.0,SE,10.4,-,N/A,,Clear,140,2014-05-19 13:53:00
9:53 AM,68.0,60.1,76,30.16,10.0,SE,10.4,-,N/A,,Clear,140,2014-05-19 14:53:00
10:53 AM,72.0,62.1,71,30.15,10.0,South,12.7,-,N/A,,Scattered Clouds,170,2014-05-19 15:53:00
11:53 AM,73.0,63.0,71,30.14,10.0,SSE,10.4,-,N/A,,Scattered Clouds,160,2014-05-19 16:53:00
12:53 PM,75.2,62.6,65,30.12,10.0,SE,8.1,-,N/A,,Clear,130,2014-05-19 17:53:00
1:53 PM,78.1,62.1,58,30.09,10.0,South,10.4,17.3,N/A,,Partly Cloudy,190,2014-05-19 18:53:00
2:53 PM,79.0,64.0,60,30.07,10.0,SSE,15.0,-,N/A,,Scattered Clouds,160,2014-05-19 19:53:00
3:53 PM,80.1,61.0,52,30.05,10.0,South,16.1,-,N/A,,Scattered Clouds,180,2014-05-19 20:53:00
4:53 PM,80.1,61.0,52,30.03,10.0,South,15.0,23.0,N/A,,Clear,180,2014-05-19 21:53:00
5:53 PM,80.1,60.1,50,30.01,10.0,South,16.1,23.0,N/A,,Clear,180,2014-05-19 22:53:00
6:53 PM,79.0,60.1,52,29.99,10.0,South,9.2,-,N/A,,Clear,190,2014-05-19 23:53:00
7:53 PM,75.0,61.0,62,29.98,10.0,South,9.2,-,N/A,,Clear,180,2014-05-20 00:53:00
8:53 PM,73.0,60.1,64,29.99,10.0,South,8.1,-,N/A,,Clear,170,2014-05-20 01:53:00
9:53 PM,71.1,60.1,68,30.00,10.0,South,9.2,-,N/A,,Clear,170,2014-05-20 02:53:00
10:53 PM,69.1,59.0,70,30.01,10.0,South,6.9,-,N/A,,Clear,190,2014-05-20 03:53:00
11:53 PM,68.0,57.9,70,30.00,10.0,South,5.8,-,N/A,,Clear,180,2014-05-20 04:53:00